Stoneville, NC

6:32 PM EST on February 08, 2016 (GMT -0500)
Reidsville

Weather History for KSIF - March, 2013

Change the Weather History Date:

Thursday, March 14, 2013

  Actual Average (KGSO) Record (KGSO)
Temperature  
Mean Temperature 40 °F 49 °F  
Max Temperature 52 °F 60 °F 82 °F (1990)
Min Temperature 27 °F 39 °F 10 °F (1926)
Degree Days  
Heating Degree Days 26 16  
Month to date heating degree days 246  
Since 1 July heating degree days 3101  
Cooling Degree Days 0 0  
Month to date cooling degree days 0  
Year to date cooling degree days 0  
Moisture  
Dew Point 16 °F    
Average Humidity 40    
Maximum Humidity 65    
Minimum Humidity 22    
Precipitation  
Precipitation 0.00 in 0.12 in 1.08 in (1911)
Month to date precipitation 1.67  
Year to date precipitation 7.69  
Snow  
Snow 0.00 in 0.10 in T in (1951)
Month to date snowfall 0.6  
Since 1 July snowfall 7.3  
Snow Depth -    
Sea Level Pressure  
Sea Level Pressure 30.18 in    
Wind  
Wind Speed 5 mph (NW)    
Max Wind Speed 13 mph    
Max Gust Speed 22 mph    
Visibility 10 miles    
Events      
T = Trace of Precipitation, MM = Missing Value Source: NWS Daily Summary

Daily Weather History Graph

Daily Weather History Graph

Search for Another Location

Airport or City:

Trip Planner

Search our weather history database for the weather conditions in past years. The results will help you decide how hot, cold, wet, or windy it might be!

Date:

Astronomy

Mar. 14, 2013 Rise Set
Actual Time 7:31 AM EDT 7:26 PM EDT
Civil Twilight 7:05 AM EDT 7:51 PM EDT
Nautical Twilight 6:35 AM EDT 8:21 PM EDT
Astronomical Twilight 6:05 AM EDT 8:51 PM EDT
Moon 8:50 AM EDT (3/14) 10:34 PM EDT (3/14)
Length of Visible Light 12h 46m
Length of Day
11h 54m
Waxing Crescent, 9% of the Moon is Illuminated
Mar 14
Waxing Crescent
Mar 19
First Quarter
Mar 27
Full
Apr 3
Last Quarter
Apr 10
New

Hourly Weather History & Observations

Time (EDT) Temp. Windchill Dew Point Humidity Pressure Visibility Wind Dir Wind Speed Gust Speed Precip Events Conditions
12:15 AM 33.4 °F 30.4 °F 14.5 °F 46% 30.16 in 10.0 mi West 3.5 mph - N/A   Mostly Cloudy
12:35 AM 33.8 °F 28.6 °F 14.7 °F 46% 30.16 in 10.0 mi NW 5.8 mph - N/A   Overcast
12:55 AM 33.8 °F 26.4 °F 14.0 °F 44% 30.17 in 10.0 mi NNW 9.2 mph - N/A   Scattered Clouds
1:15 AM 33.3 °F 28.9 °F 14.0 °F 45% 30.17 in 10.0 mi NNW 4.6 mph - N/A   Clear
1:35 AM 32.4 °F - 14.0 °F 47% 30.17 in 10.0 mi Calm Calm - N/A   Clear
1:55 AM 32.0 °F 28.7 °F 14.2 °F 48% 30.17 in 10.0 mi NW 3.5 mph - N/A   Clear
2:15 AM 32.7 °F 25.0 °F 14.0 °F 46% 30.17 in 10.0 mi NW 9.2 mph - N/A   Clear
2:35 AM 32.7 °F 24.5 °F 14.0 °F 46% 30.18 in 10.0 mi WNW 10.4 mph - N/A   Scattered Clouds
2:55 AM 32.9 °F 28.5 °F 14.2 °F 46% 30.18 in 10.0 mi NW 4.6 mph - N/A   Mostly Cloudy
3:15 AM 33.1 °F 30.0 °F 14.9 °F 47% 30.17 in 10.0 mi NW 3.5 mph - N/A   Overcast
3:35 AM 33.1 °F 27.7 °F 15.1 °F 48% 30.17 in 10.0 mi NW 5.8 mph - N/A   Mostly Cloudy
3:55 AM 33.3 °F 26.4 °F 15.8 °F 49% 30.17 in 10.0 mi NW 8.1 mph - N/A   Mostly Cloudy
4:15 AM 32.9 °F 28.5 °F 15.8 °F 49% 30.17 in 10.0 mi NW 4.6 mph - N/A   Mostly Cloudy
4:35 AM 32.5 °F 25.5 °F 15.8 °F 50% 30.18 in 10.0 mi NW 8.1 mph - N/A   Mostly Cloudy
4:55 AM 32.2 °F 25.0 °F 14.9 °F 49% 30.18 in 10.0 mi NNW 8.1 mph - N/A   Scattered Clouds
5:15 AM 32.0 °F 25.6 °F 14.9 °F 49% 30.17 in 10.0 mi NW 6.9 mph - N/A   Scattered Clouds
5:35 AM 31.6 °F 27.0 °F 14.9 °F 50% 30.18 in 10.0 mi WNW 4.6 mph - N/A   Clear
5:55 AM 30.9 °F 27.5 °F 14.7 °F 51% 30.18 in 10.0 mi NW 3.5 mph - N/A   Scattered Clouds
6:15 AM 31.6 °F - 15.1 °F 50% 30.19 in 10.0 mi Calm Calm - N/A   Scattered Clouds
6:35 AM 31.1 °F 26.4 °F 15.4 °F 52% 30.20 in 10.0 mi NW 4.6 mph - N/A   Clear
6:55 AM 30.6 °F - 15.8 °F 54% 30.20 in 10.0 mi Calm Calm - N/A   Clear
7:15 AM 29.8 °F - 15.8 °F 56% 30.21 in 10.0 mi Calm Calm - N/A   Clear
7:35 AM 28.9 °F - 16.3 °F 59% 30.21 in 10.0 mi Calm Calm - N/A   Clear
7:55 AM 27.9 °F - 17.4 °F 65% 30.21 in 10.0 mi Calm Calm - N/A   Clear
8:15 AM 28.9 °F - 17.8 °F 63% 30.22 in 10.0 mi Calm Calm - N/A   Clear
8:35 AM 31.5 °F - 17.4 °F 56% 30.22 in 10.0 mi Calm Calm - N/A   Clear
8:55 AM 32.4 °F 27.9 °F 17.8 °F 55% 30.23 in 10.0 mi West 4.6 mph - N/A   Clear
9:15 AM 34.0 °F 28.0 °F 17.2 °F 50% 30.24 in 10.0 mi WNW 6.9 mph - N/A   Clear
9:55 AM 36.1 °F 29.9 °F 15.3 °F 43% 30.24 in 10.0 mi NW 8.1 mph - N/A   Clear
10:15 AM 36.9 °F 30.1 °F 14.2 °F 40% 30.25 in 10.0 mi NNW 9.2 mph 18.4 mph N/A   Clear
10:35 AM 38.1 °F 32.9 °F 14.2 °F 38% 30.25 in 10.0 mi NW 6.9 mph - N/A   Clear
10:55 AM 39.4 °F 35.2 °F 13.8 °F 35% 30.25 in 10.0 mi NW 5.8 mph 17.3 mph N/A   Clear
11:15 AM 40.3 °F 34.4 °F 13.8 °F 34% 30.24 in 10.0 mi North 9.2 mph 21.9 mph N/A   Clear
11:35 AM 41.4 °F 35.7 °F 14.0 °F 33% 30.23 in 10.0 mi North 9.2 mph - N/A   Clear
11:55 AM 43.3 °F 40.7 °F 15.4 °F 32% 30.23 in 10.0 mi NW 4.6 mph - N/A   Clear
12:15 PM 44.2 °F 40.3 °F 15.4 °F 31% 30.22 in 10.0 mi WNW 6.9 mph - N/A   Clear
12:35 PM 45.9 °F 42.9 °F 15.4 °F 30% 30.21 in 10.0 mi NW 5.8 mph - N/A   Clear
12:55 PM 46.2 °F 42.2 °F 14.9 °F 28% 30.21 in 10.0 mi NW 8.1 mph - N/A   Clear
1:15 PM 47.5 °F - 16.2 °F 29% 30.20 in 10.0 mi North 6.9 mph - N/A   Clear
1:35 PM 49.5 °F - 15.4 °F 26% 30.19 in 10.0 mi NNW 11.5 mph 17.3 mph N/A   Clear
1:55 PM 49.3 °F - 15.3 °F 26% 30.19 in 10.0 mi NNW 8.1 mph - N/A   Clear
2:15 PM 50.2 °F - 16.3 °F 26% 30.19 in 10.0 mi North 6.9 mph - N/A   Clear
2:35 PM 50.2 °F - 15.6 °F 25% 30.17 in 10.0 mi NW 5.8 mph - N/A   Clear
2:55 PM 50.9 °F - 15.4 °F 24% 30.17 in 10.0 mi NW 9.2 mph 16.1 mph N/A   Clear
3:15 PM 50.5 °F - 15.6 °F 25% 30.16 in 10.0 mi WNW 6.9 mph - N/A   Clear
3:35 PM 51.6 °F - 14.9 °F 23% 30.15 in 10.0 mi WNW 11.5 mph 19.6 mph N/A   Clear
3:55 PM 51.4 °F - 14.4 °F 23% 30.15 in 10.0 mi West 6.9 mph - N/A   Clear
4:15 PM 51.6 °F - 15.3 °F 24% 30.14 in 10.0 mi West 12.7 mph 18.4 mph N/A   Clear
4:35 PM 50.9 °F - 15.3 °F 24% 30.14 in 10.0 mi WNW 5.8 mph - N/A   Clear
4:55 PM 52.3 °F - 14.9 °F 23% 30.14 in 10.0 mi WNW 8.1 mph - N/A   Clear
5:15 PM 51.6 °F - 14.0 °F 22% 30.13 in 10.0 mi West 6.9 mph - N/A   Clear
5:55 PM 50.9 °F - 15.4 °F 24% 30.13 in 10.0 mi WNW 4.6 mph 16.1 mph N/A   Clear
6:15 PM 50.2 °F - 14.7 °F 24% 30.13 in 10.0 mi WNW 10.4 mph - N/A   Clear
6:35 PM 49.5 °F - 15.3 °F 26% 30.13 in 10.0 mi West 9.2 mph - N/A   Clear
6:55 PM 48.2 °F - 15.1 °F 27% 30.13 in 10.0 mi WSW 11.5 mph 17.3 mph N/A   Clear
7:15 PM 46.9 °F - 15.6 °F 29% 30.14 in 10.0 mi West 8.1 mph - N/A   Clear
7:35 PM 45.9 °F 42.3 °F 15.6 °F 30% 30.14 in 10.0 mi West 6.9 mph - N/A   Clear
7:55 PM 44.6 °F 41.4 °F 16.3 °F 32% 30.14 in 10.0 mi West 5.8 mph - N/A   Clear
8:15 PM 43.7 °F - 16.3 °F 33% 30.14 in 10.0 mi Calm Calm - N/A   Clear
8:35 PM 43.0 °F 40.3 °F 16.3 °F 34% 30.14 in 10.0 mi West 4.6 mph - N/A   Clear
8:55 PM 42.3 °F 39.4 °F 16.5 °F 35% 30.15 in 10.0 mi West 4.6 mph - N/A   Clear
9:15 PM 41.9 °F 40.0 °F 16.5 °F 36% 30.15 in 10.0 mi West 3.5 mph - N/A   Clear
9:55 PM 40.3 °F - 18.0 °F 41% 30.16 in 10.0 mi Calm Calm - N/A   Clear
10:15 PM 35.6 °F - 20.7 °F 55% 30.16 in 10.0 mi Calm Calm - N/A   Clear
10:35 PM 36.5 °F 33.9 °F 18.5 °F 48% 30.16 in 10.0 mi ENE 3.5 mph - N/A   Clear
10:55 PM 31.6 °F - 19.6 °F 61% 30.16 in 10.0 mi Calm Calm - N/A   Clear
11:15 PM 32.9 °F - 21.9 °F 64% 30.17 in 10.0 mi Calm Calm - N/A   Clear
11:55 PM 35.1 °F - 23.4 °F 62% 30.17 in 10.0 mi Calm Calm - N/A   Clear